Miscellaneous Local Product
Issued by NWS North Platte, NE

Home | Current Version | Previous Version | Text Only | Print | Product List | Glossary On
Versions: 1 2 3 4 5 6 7 8 9 10 11 12 13 14 15 16 17 18 19 20 21 22 23 24 25 26 27 28 29 30 31 32 33 34 35 36 37 38 39 40 41 42 43 44 45 46 47 48 49 50
000
AXUS43 KLBF 031910
MISLBF


WESTERN AND NORTH CENTRAL NEBRASKA HOURLY WEATHER ROUNDUP
NATIONAL WEATHER SERVICE NORTH PLATTE NE
200 PM CDT THU SEP 03 2015

NOTE: "FAIR" INDICATES FEW OR NO CLOUDS BELOW 12,000 FEET WITH NO
SIGNIFICANT WEATHER AND/OR OBSTRUCTIONS TO VISIBILITY.

NOTE: STATIONS NOT REPORTING VARIABLES SUCH AS SKY/WEATHER OR
PRESSURE ARE PROVIDED BY THE NEBRASKA DEPARTMENT OF
ROADS...RAWS...AND APRS NETWORKS...AND ARE NOT UNDER
NATIONAL WEATHER SERVICE QUALITY CONTROL.

...OBSERVATIONS IN AND NEAR THE EASTERN PANHANDLE OF NEBRASKA...

CITY           SKY/WX    TMP DP  RH WIND       PRES   REMARKS
PINE RIDGE     PTSUNNY   92  47  21 CALM      29.82F
CHADRON        PTSUNNY   95  44  17 CALM      29.80F HX  91
ALLIANCE       PTSUNNY   91  46  21 SW6       29.88F
SIDNEY         CLOUDY    92  44  19 E3        29.92F
CRESCENT LAKE    N/A     97  49  19 CALM        N/A  HX  94
BIG SPRINGS      N/A     93  57  29 N3          N/A  HX  91
$$

...OBSERVATIONS IN NORTH CENTRAL NEBRASKA...

CITY           SKY/WX    TMP DP  RH WIND       PRES   REMARKS
VALENTINE      MOSUNNY   99  42  14 SE16      29.79F HX  94
THEDFORD       MOSUNNY   95  60  30 SE10      29.82F HX  95
AINSWORTH      MOSUNNY   94  58  30 E9        29.81F HX  93
O`NEILL        SUNNY     90  68  48 SE12      29.81S HX  94
ORD            SUNNY     92  64  39 S12       29.78F HX  93
BROKEN BOW     PTSUNNY   91  65  41 S9        29.81F HX  93
SPRINGVIEW       N/A     94  65  38 E7G15       N/A  HX  96
SARGENT          N/A     91  67  44 CALM        N/A  HX  94
CHAMBERS         N/A     91  66  43 E12         N/A  HX  93
EWING            N/A     88  73  61 S6          N/A  HX  96
$$

...OBSERVATIONS IN SOUTHWEST NEBRASKA AND FAR NORTHEAST COLORADO...

CITY           SKY/WX    TMP DP  RH WIND       PRES   REMARKS
WRAY           CLOUDY    95  44  17 E9        29.87S HX  91
HOLYOKE        FAIR      99  50  19 SE3       29.87F HX  95
IMPERIAL       SUNNY     94  56  27 VRB6      29.83F HX  92
OGALLALA       PTSUNNY   95  57  27 SE8       29.83F HX  94
NORTH PLATTE   PTSUNNY   89  67  47 E9        29.81F HX  92
MCCOOK         MOSUNNY   96  57  27 SE12G18   29.79F HX  95
LEXINGTON      PTSUNNY   87  65  47 SE9       29.82F
PAXTON           N/A     90  70  51 CALM        N/A  HX  95
BRADY            N/A     88  69  52 N3          N/A  HX  92
CALLAWAY         N/A     87  72  61 S10         N/A  HX  93
$$

...OBSERVATIONS IN CENTRAL LINCOLN COUNTY AREA...

CITY           SKY/WX    TMP DP  RH WIND       PRES   REMARKS
N.P. AIRPORT   PTSUNNY   89  67  47 E9        29.81F HX  92
N.P. DOWNTOWN    N/A     92  67  43 CALM        N/A  HX  95
N.P. HILLCREST   N/A     89  67  48 SE8         N/A  HX  92
$$

...SOME OBSERVATIONS FROM AROUND THE REGION...

CITY           SKY/WX    TMP DP  RH WIND       PRES   REMARKS
DENVER         CLOUDY    82  42  24 E10       30.03F
LARAMIE        MOSUNNY   77  36  22 MISG      30.12F
CHEYENNE       PTSUNNY   83  37  19 SE8       30.05F
SCOTTSBLUFF    PTSUNNY   89  48  24 W3        29.89F
RAPID CITY     SUNNY     95  52  23 S8        29.77F HX  92
PIERRE         MOSUNNY   99  60  27 SE17      29.71F HX  99
WINNER         FAIR      98  53  22 SE13      29.76F HX  96
SIOUX FALLS    SUNNY     85  72  65 SE12G21   29.82F HX  91
OMAHA          MOSUNNY   90  69  50 S16       29.84F HX  94
GRAND ISLAND   SUNNY     93  63  36 SE16      29.82F HX  94
KANSAS CITY    PTSUNNY   91  68  46 S16G22    29.92F HX  95
WICHITA        MOSUNNY   93  62  35 S25G32    29.88F HX  93
HAYS           SUNNY     99  57  25 S26G37    29.80F HX  97
LIBERAL        PTSUNNY   93  55  27 S14G20    29.88F HX  91
GOODLAND       PTSUNNY   95  46  18 S10       29.86F HX  91
$$



USA.gov is the U.S. government's official web portal to all federal, state and local government web resources and services.